Regional Weather Roundup
Issued by NWS Charleston, WV

Home | Current Version | Previous Version | Text Only | Print | Product List | Glossary Off
Versions: 1 2 3 4 5 6 7 8 9 10 11 12 13 14 15 16 17 18 19 20 21 22 23 24 25 26 27 28 29 30 31 32 33 34 35 36 37 38 39 40 41 42 43 44 45 46 47 48 49 50

000
ASUS41 KRLX 031910
RWRRLX
West Virginia Regional Weather Roundup
National Weather Service Charleston WV
200 PM EST TUE MAR 03 2015

Note: "fair" indicates few or no clouds below 12,000 feet with no
significant weather and/or obstructions to visibility.

WVZ003-032000-
Northern Panhandle of West Virginia

CITY           SKY/WX    TMP DP  RH WIND       PRES   REMARKS
WHEELING       LGT RAIN  38  29  70 S13G22    29.85F
$$

WVZ009-032000-
Northwest West Virginia

CITY           SKY/WX    TMP DP  RH WIND       PRES   REMARKS
PARKERSBURG    LGT RAIN  39  34  82 S7        29.91F
$$

WVZ006-032000-
Western West Virginia

CITY           SKY/WX    TMP DP  RH WIND       PRES   REMARKS
HUNTINGTON     CLOUDY    44  41  89 S10       29.90F
$$

WVZ015-032000-
West Central West Virginia

CITY           SKY/WX    TMP DP  RH WIND       PRES   REMARKS
CHARLESTON     LGT RAIN  50  43  77 S9        29.93F
$$

WVZ022-031-032000-
North Central West Virginia

CITY           SKY/WX    TMP DP  RH WIND       PRES   REMARKS
CLARKSBURG     LGT RAIN  40  30  67 CALM      29.91F
MORGANTOWN     LGT RAIN  45  34  65 S8        29.91F
$$

WVZ025-035-042-045-032000-
Southern West Virginia

CITY           SKY/WX    TMP DP  RH WIND       PRES   REMARKS
BECKLEY        CLOUDY    40  32  73 SE12      30.02F
LOGAN          CLOUDY    50  45  81 VRB7G14   29.94F
BLUEFIELD      CLOUDY    46  36  68 SE6       30.06F
LEWISBURG      CLOUDY    35  34  95 N6        30.09F FOG
$$

WVZ047-032000-
Northern Mountains of West Virginia

CITY           SKY/WX    TMP DP  RH WIND       PRES   REMARKS
ELKINS         CLOUDY    42  35  76 SE12      29.95F
$$

WVZ052-032000-
Eastern Panhandle of West Virginia

CITY           SKY/WX    TMP DP  RH WIND       PRES   REMARKS
MARTINSBURG    CLOUDY    33  16  49 SE13G18   30.15F
PETERSBURG     CLOUDY    42  27  54 S8        30.05F
$$


USA.gov is the U.S. government's official web portal to all federal, state and local government web resources and services.